Location: Palomar Mountain Lodge
(33.3110°N, 116.8495°W)
Time: 14:10:00
(UTC-08:00)

Resurs 01 Rocket - Pass Details

Date: 12 July 2018
Orbit: 635 x 644 km, 98.1° (Epoch: 11 November)

Event Time Altitude Azimuth Distance (km) Brightness Sun altitude
Exits shadow 20:56:27 - 169° (S) 2,310 4.1 -11.1°
Reaches altitude 10° 20:57:09 10° 169° (S) 2,024 3.8 -11.3°
Maximum altitude 21:01:34 83° 258° (WSW) 650 1.7 -12.0°
Drops below altitude 10° 21:06:01 10° 346° (NNW) 2,040 5.0 -12.7°
Sets 21:08:14 0° 347° (NNW) 2,954 5.9 -13.1°
